Regional Weather Roundup
Issued by NWS

Home | Current Version | Previous Version | Graphics & Text | Print | Product List | Glossary On
Versions: 1 2 3 4 5 6 7 8 9 10 11 12 13 14 15 16 17 18 19 20 21 22 23 24 25 26 27 28 29 30 31 32 33 34 35 36 37 38 39 40 41 42 43 44 45 46 47 48 49 50
851
ASUS43 KDTX 030910
RWRMI
MICHIGAN HOURLY REGIONAL WEATHER ROUNDUP
NATIONAL WEATHER SERVICE DETROIT/PONTIAC MI
500 AM EDT TUE MAY 03 2016

NOTE: "FAIR" INDICATES FEW OR NO CLOUDS BELOW 12,000 FEET WITH NO
SIGNIFICANT WEATHER AND/OR OBSTRUCTION TO VISIBILITY.

MIZ047>049-052>055-059>063-066>070-074>076-081>083-031000-
SOUTHEAST LOWER MICHIGAN

CITY           SKY/WX    TMP DP  RH WIND       PRES   REMARKS
ALMA           CLEAR     37  37 100 CALM      29.95S
ANN ARBOR      PTCLDY    41  40  96 CALM      29.94S
BAD AXE        CLEAR     32  31  96 CALM      29.95S
CARO           CLEAR     32  31  97 CALM      29.95S
DETROIT CITY   CLEAR     41  39  93 CALM      29.95S
DETROIT        CLOUDY    44  43  96 CALM      29.95S FOG
FLINT          CLEAR     38  34  85 CALM      29.96S FOG
GROSSE ILE     FOG       43  41  93 CALM      29.93F VSB 1/4
HILLSDALE      CLOUDY    46  44  95 CALM      29.94S
HOWELL         PTCLDY    42  41  95 CALM      29.95S

CITY           SKY/WX    TMP DP  RH WIND       PRES   REMARKS
JACKSON        CLOUDY    46  43  89 CALM      29.95R
LAMBERTVILLE   CLOUDY    47  46  93 CALM      29.94F FOG
LANSING        CLEAR     41  38  89 CALM      29.96S FOG
LAPEER         FAIR      33  33  99 CALM      29.95S
MASON            N/A     43  41  93 CALM      29.95S FOG
MONROE         MOCLDY    47  47 100 CALM      29.93F FOG
MT. CLEMENS    PTCLDY    38  38  99 NW1       29.94S
PONTIAC        CLEAR     38  36  92 CALM      29.94S FOG
PORT HOPE        N/A     35  33  92 S3        29.93S
PORT HURON     CLEAR     34  34 100 CALM      29.95S FOG
TRI CITIES     PTCLDY    41  31  67 CALM      29.95S
MIDLAND        FAIR      34  33  96 CALM      29.94S
TROY           CLEAR     41  38  91 CALM      29.96S
SAGINAW HB     CLEAR     36  32  87 CALM      29.95S
$$
MIZ043>046-050>051-056>058-064>065-071>073-077>080-031000-
SOUTHWEST LOWER MICHIGAN

CITY           SKY/WX    TMP DP  RH WIND       PRES   REMARKS
BATTLE CREEK   CLEAR     44  41  89 CALM      29.96S
BENTON HARBOR  CLEAR     36  34  92 CALM      29.97S
BIG RAPIDS     CLEAR     36  32  87 CALM      29.94S
COLDWATER      CLOUDY    46  46 100 CALM      29.95S
FREMONT        FAIR      38  38 100 CALM      29.95S
HOLLAND        CLEAR     38  36  92 CALM      29.96F
GRAND RAPIDS   CLEAR     39  36  89 CALM      29.96S
IONIA          FAIR      39  38  94 CALM      29.94F
KALAMAZOO      CLEAR     44  40  85 CALM      29.96S
LUDINGTON      CLEAR     37  35  94 CALM      29.95S
MARSHALL       FOG       43  42  97 CALM      29.94F VSB 1/4
MOUNT PLEASANT CLEAR     37  35  94 CALM      29.93F
MUSKEGON       PTCLDY    37  33  85 CALM      29.96S
SOUTH HAVEN    CLEAR     35  35  98 CALM      29.97R
$$
MIZ016>042-031000-
NORTHERN LOWER MICHIGAN

CITY           SKY/WX    TMP DP  RH WIND       PRES   REMARKS
ALPENA         CLEAR     32  29  88 CALM      29.92F
BEAVER ISLAND  CLEAR     32  31  95 CALM      29.91F
BELLAIRE       CLEAR     32  31  96 CALM      29.93F
CADILLAC       CLEAR     30  28  91 CALM      29.93S
CHARLEVOIX     CLEAR     37  33  86 CALM      29.94F
FRANKFORT      CLEAR     34  31  90 CALM      29.93F
GAYLORD        CLEAR     33  27  78 CALM      29.92S
GRAYLING       CLEAR     28  27  93 CALM      29.94S
HARBOR SPRINGS CLEAR     34  31  88 CALM      29.92S
HOUGHTON LAKE  CLEAR     33  31  92 CALM      29.93S
MANISTEE       CLEAR     32  27  80 CALM      29.95S
OSCODA         CLEAR     33  27  79 SW3       29.93S
PELLSTON       CLEAR     29  27  92 CALM      29.92S
ROGERS CITY    CLEAR     38  31  75 SW3       29.92F
TRAVERSE CITY  CLEAR     36  32  85 CALM      29.92S
$$
MIZ007>008-015-031000-
EASTERN UPPER MICHIGAN

CITY           SKY/WX    TMP DP  RH WIND       PRES   REMARKS
KINROSS          N/A     34  30  86 CALM      29.90S
MACKINAC ISLAN CLEAR     37  30  75 S5        29.90F WCI  33
NEWBERRY       CLEAR     32  30  94 S5        29.88F WCI  27
S. S. MARIE    PTCLDY    36  32  85 SW3       29.89F
MUNISING         N/A     33  29  85 S6        29.86F WCI  28
$$
MIZ004>006-011>014-085-031000-
CENTRAL UPPER MICHIGAN

CITY           SKY/WX    TMP DP  RH WIND       PRES   REMARKS
MANISTIQUE     CLEAR     30  29  94 CALM      29.89F
ESCANABA       CLEAR     32  28  86 CALM      29.88F
MENOMINEE      CLEAR     46  36  66 SW8       29.89F
SAWYER-GWINN   CLEAR     32  29  87 CALM      29.84F
$$
MIZ001>003-009>011-084-031000-
WESTERN UPPER MICHIGAN

CITY           SKY/WX    TMP DP  RH WIND       PRES   REMARKS
IRON MOUNTAIN  CLEAR     32  28  85 N3        29.87S
HOUGHTON       CLOUDY    46  31  55 SW3       29.81F
COPPER HARBOR    N/A     51  34  52 W10G20    29.79F
IRONWOOD         N/A     48  32  53 SW8       29.84F
$$

ABBREVIATIONS USED IN REMARKS
   TC - TEMPERATURE IN CELSIUS
  WCI - WIND CHILL INDEX
   HX - HEAT INDEX
  VSB - VISIBILITY





USA.gov is the U.S. government's official web portal to all federal, state and local government web resources and services.